Wind_Speed
7 7 7 6 6 7 7 7 7 8 9 9 10 11 13 15 16 17 16 15 16 15 15 15 15 14 14 14 13 12 11 11 10 9 8 7 6 6 5 4 4 3 2
9 10 9 8 8 8 8 9 9 10 10 10 11 12 13 15 16 17 17 17 17 16 15 15 15 15 15 14 13 12 11 10 10 9 8 7 6 6 5 4 3 2 1
10 11 11 11 11 11 11 11 11 12 12 12 13 13 14 15 16 16 17 17 17 17 17 16 16 16 15 14 13 12 11 10 9 8 8 7 6 5 5 4 2 1 1
12 13 13 13 13 14 14 14 14 14 14 15 15 15 15 16 16 17 17 18 18 17 17 17 17 16 15 14 13 11 10 10 9 8 8 7 6 5 4 3 2 1 0
14 14 15 15 15 16 16 17 17 17 17 17 18 18 17 17 17 18 19 19 19 18 18 18 17 16 16 14 13 11 10 9 9 8 7 7 6 5 4 3 2 1 2
16 16 16 17 17 18 18 19 20 20 21 21 20 20 20 20 19 19 20 21 20 20 19 19 18 17 16 15 13 11 10 9 8 8 6 5 5 4 3 3 3 2 3
17 17 18 19 19 19 20 20 20 21 22 23 24 23 23 23 22 21 21 21 21 21 20 20 19 18 17 15 13 12 10 9 8 7 6 5 5 4 3 3 3 3 3
17 18 19 20 20 21 21 22 21 22 24 24 25 26 26 26 26 24 23 23 23 23 22 21 20 19 18 16 15 13 11 10 9 8 7 6 5 4 4 4 4 4 4
18 19 20 20 21 22 22 23 23 24 24 25 26 28 28 28 28 27 26 26 25 24 24 23 21 20 19 18 16 14 13 11 10 9 8 7 6 5 4 4 4 4 5
19 20 20 20 21 21 22 23 24 25 25 26 27 28 29 30 30 30 30 29 28 27 25 24 24 22 21 20 18 16 14 13 12 11 9 8 7 6 5 4 4 5 5
20 20 20 21 21 22 23 24 25 26 26 27 28 28 29 30 30 31 30 30 30 29 28 26 26 25 23 22 20 18 16 15 14 13 11 9 8 7 6 5 5 5 6
20 21 21 21 22 23 24 25 25 26 27 28 29 29 30 30 30 31 30 30 30 29 28 27 27 26 25 24 22 21 19 17 16 15 13 11 9 8 7 6 6 6 6
21 22 22 22 22 23 23 24 24 25 26 28 29 30 30 30 30 30 31 31 30 30 30 29 27 28 27 26 24 22 21 20 18 17 15 13 11 10 9 8 7 7 7
22 21 21 21 21 21 21 21 22 23 24 26 27 29 30 31 31 31 31 32 31 30 30 29 29 28 28 28 27 25 24 22 20 19 17 16 14 12 11 10 9 8 8
21 21 20 20 20 20 20 20 20 21 22 23 24 26 27 29 31 32 33 33 32 32 32 30 30 30 28 28 27 26 24 23 22 21 20 18 16 15 14 12 11 10 9
20 20 20 20 20 20 19 19 20 20 21 21 22 23 25 26 28 29 31 33 33 33 33 32 31 31 30 28 28 28 26 25 24 23 22 21 19 17 16 15 13 12 11
20 20 20 20 19 19 18 18 19 19 19 20 20 21 22 24 26 27 29 32 33 33 33 32 32 32 32 31 29 28 28 27 26 25 24 23 21 20 19 17 16 15 14
20 20 20 20 19 19 18 18 18 18 18 19 19 20 20 22 24 26 27 29 31 33 32 32 33 33 33 32 30 30 29 28 28 27 26 25 24 22 21 20 18 17 16
21 21 21 20 20 19 18 17 17 18 18 18 18 18 18 19 21 23 25 27 29 31 32 32 33 34 33 34 32 31 30 29 29 29 28 27 26 24 23 22 21 19 18
22 21 21 20 20 19 18 18 18 18 17 17 16 16 16 17 18 19 21 24 27 29 30 31 32 33 34 34 34 33 32 31 31 30 30 28 27 26 25 24 23 22 21
21 21 21 21 20 20 19 19 18 18 18 17 17 16 15 15 16 17 18 20 23 26 28 30 31 32 33 35 34 34 33 33 32 32 31 31 29 29 28 26 26 25 23
21 22 22 21 20 20 20 20 19 19 18 18 17 15 15 14 14 14 15 16 18 21 25 27 29 30 32 33 34 34 33 33 32 32 31 32 32 30 30 29 27 27 26
21 22 22 21 20 21 21 21 20 19 19 18 17 15 14 13 12 12 12 14 15 18 21 24 27 29 30 32 34 35 34 33 33 33 33 33 34 33 32 31 29 28 28
20 21 22 22 21 21 21 21 21 21 20 18 17 16 14 13 12 11 10 11 13 14 17 20 23 26 27 29 32 34 35 35 34 33 34 33 34 34 33 32 31 30 30
20 21 22 22 22 22 22 21 21 21 21 19 18 17 15 13 12 10 9 9 10 12 14 17 20 23 25 27 29 32 33 35 35 34 33 33 34 34 33 33 34 33 31
19 21 22 23 23 23 23 22 22 22 21 20 19 18 17 15 12 10 9 7 8 10 12 15 17 20 23 25 27 29 31 32 34 35 34 33 33 34 34 33 34 33 33
Wind_Direction
319 311 309 304 299 295 290 284 272 268 267 263 258 257 253 248 247 248 248 249 253 257 261 265 269 274 278 281 284 288 292 295 297 298 298 301 303 303 305 311 312 325 346
311 307 301 296 293 287 282 279 273 267 266 262 260 259 258 254 252 250 250 251 254 258 263 265 268 272 275 279 283 286 290 294 298 296 296 296 298 301 303 307 312 328 359
304 307 302 295 290 283 278 275 272 268 265 262 260 258 258 258 256 249 250 252 254 258 262 265 266 269 272 276 280 283 288 293 296 295 293 293 292 293 299 297 298 314 24
303 300 298 295 288 281 276 274 271 268 266 264 262 259 257 257 254 251 251 252 254 256 260 263 263 266 270 273 277 279 285 290 291 292 292 288 284 286 289 286 277 273 191
301 297 293 290 288 283 277 274 271 268 265 263 262 258 257 256 256 255 253 252 253 256 259 259 260 262 266 269 274 275 279 283 288 290 291 286 281 281 277 271 260 236 186
297 293 291 290 286 282 278 275 272 269 266 263 260 257 255 254 256 256 253 252 253 257 259 257 257 259 262 265 269 270 272 276 282 286 289 286 280 272 264 254 240 206 182
297 294 290 288 284 280 276 275 274 270 267 265 261 258 256 257 257 258 256 254 253 255 256 256 255 256 259 261 263 264 266 268 273 277 280 281 278 266 255 237 228 205 188
300 295 292 289 285 279 275 274 273 272 268 266 263 262 260 257 257 259 257 255 254 254 254 254 255 255 256 258 258 258 259 261 264 267 270 275 275 262 250 236 228 210 193
300 296 294 290 286 281 277 273 272 270 268 266 264 262 260 258 256 257 257 255 254 254 253 252 252 254 254 254 254 253 253 254 257 259 264 266 266 257 246 240 229 214 199
304 300 296 291 286 281 276 274 272 270 267 266 265 263 261 259 257 256 255 254 253 253 253 253 251 250 251 251 250 250 249 248 250 253 256 258 256 250 244 240 229 216 203
308 304 300 294 287 283 280 276 273 271 268 267 267 264 261 260 258 255 255 254 253 252 252 253 251 248 248 248 247 246 245 244 246 249 250 251 247 243 242 240 230 215 202
314 309 305 299 293 287 283 280 277 273 270 267 265 264 262 260 259 257 253 252 250 250 250 249 248 246 245 245 245 244 243 243 243 245 244 242 239 237 237 237 229 216 208
321 317 313 307 301 294 288 284 280 276 273 269 266 263 261 259 259 257 254 251 250 249 248 247 245 244 242 242 244 243 242 240 241 241 239 237 234 232 232 233 229 221 215
325 322 317 312 309 303 297 292 286 281 276 272 268 264 262 259 257 255 254 251 249 248 248 247 243 242 241 241 242 242 240 238 237 237 235 234 231 230 229 230 230 227 220
330 327 323 318 315 309 303 300 296 290 284 278 272 267 264 261 258 255 252 251 248 247 246 246 243 240 241 240 240 240 239 237 234 233 233 232 230 229 228 228 228 227 223
337 334 332 327 322 318 312 306 302 298 291 284 277 270 266 262 260 257 253 249 246 245 244 244 243 240 240 239 240 238 235 234 233 231 230 230 230 228 228 228 227 226 224
342 340 338 334 331 325 319 314 309 304 298 291 283 276 271 265 262 258 254 249 245 244 242 241 241 240 240 239 238 235 233 233 231 229 229 229 229 228 228 228 227 226 225
347 344 342 339 336 331 325 320 316 311 306 300 292 284 277 271 266 262 257 250 245 242 241 238 238 236 237 237 237 235 234 233 231 228 228 228 228 228 227 227 226 226 225
350 348 345 343 341 338 334 328 324 320 315 309 301 293 285 276 271 268 262 252 245 241 239 237 236 235 236 236 236 234 233 232 231 228 227 229 228 227 227 226 226 225 225
353 351 349 348 347 346 343 337 333 329 325 321 313 303 293 284 277 272 265 254 246 241 238 236 235 235 235 234 233 233 232 232 232 230 227 228 229 228 227 227 226 225 225
357 355 354 353 352 351 348 345 342 339 336 331 324 315 304 293 285 280 269 257 248 241 238 236 235 234 234 232 230 232 231 231 232 231 229 229 229 228 226 226 226 226 226
0 359 358 358 357 356 355 352 349 345 342 338 333 326 316 305 295 287 275 261 251 245 240 237 235 235 234 233 230 230 229 230 231 230 229 229 228 227 225 226 227 228 227
2 1 1 1 0 360 359 358 356 353 349 346 343 336 328 318 306 291 278 265 254 247 241 237 235 234 234 233 231 230 230 230 230 230 230 230 228 227 228 228 228 229 229
4 5 5 5 4 3 2 1 0 359 356 352 350 346 338 329 317 302 284 271 259 249 242 238 235 234 233 233 231 230 231 231 230 231 231 231 228 228 228 228 229 230 230
7 8 9 9 8 6 5 4 4 2 1 357 354 352 347 339 329 317 303 282 264 253 246 240 237 235 234 233 232 231 231 231 230 231 230 230 229 227 228 229 229 231 231
10 11 11 12 11 10 9 8 7 6 5 2 359 356 354 350 342 333 320 303 276 260 250 244 241 237 235 234 232 231 230 230 231 230 230 230 230 229 229 228 229 231 233
Height
5892 5891 5890 5889 5889 5889 5889 5888 5888 5888 5888 5888 5888 5888 5888 5888 5889 5889 5890 5890 5891 5891 5891 5891 5891 5891 5890 5890 5889 5889 5888 5887 5886 5885 5885 5884 5883 5882 5882 5881 5880 5880 5879
5890 5889 5889 5888 5888 5887 5887 5887 5887 5886 5886 5886 5886 5886 5886 5886 5886 5887 5887 5888 5889 5889 5889 5889 5889 5889 5889 5888 5888 5888 5887 5886 5885 5884 5884 5883 5882 5882 5881 5881 5880 5879 5879
5889 5888 5887 5887 5886 5886 5885 5885 5885 5884 5884 5884 5884 5884 5884 5884 5884 5884 5885 5886 5886 5887 5887 5887 5887 5887 5887 5887 5887 5886 5886 5885 5884 5883 5883 5882 5882 5881 5881 5880 5880 5879 5879
5886 5886 5885 5884 5884 5883 5883 5882 5882 5882 5881 5881 5881 5881 5881 5881 5882 5882 5882 5883 5883 5884 5884 5885 5885 5885 5885 5885 5885 5885 5884 5884 5883 5882 5882 5881 5881 5881 5880 5880 5879 5879 5879
5884 5883 5882 5882 5881 5880 5880 5879 5879 5878 5878 5878 5878 5878 5878 5878 5879 5879 5879 5880 5880 5881 5881 5882 5882 5882 5883 5883 5883 5883 5883 5883 5882 5882 5881 5881 5880 5880 5879 5879 5879 5879 5879
5882 5880 5879 5878 5877 5877 5876 5875 5875 5874 5874 5874 5874 5874 5874 5874 5875 5875 5876 5876 5877 5878 5878 5879 5879 5880 5880 5881 5881 5881 5881 5881 5881 5881 5880 5880 5879 5879 5879 5879 5879 5879 5879
5878 5877 5876 5874 5873 5872 5872 5871 5870 5870 5869 5869 5869 5870 5870 5870 5871 5871 5872 5872 5873 5874 5875 5875 5876 5877 5878 5878 5879 5879 5880 5880 5880 5880 5880 5879 5879 5879 5878 5878 5878 5878 5879
5875 5873 5871 5870 5869 5868 5867 5866 5865 5865 5864 5864 5864 5864 5865 5865 5866 5866 5867 5868 5869 5870 5871 5872 5873 5874 5875 5875 5876 5877 5878 5878 5878 5879 5879 5879 5879 5878 5878 5878 5878 5878 5878
5871 5869 5867 5866 5864 5863 5862 5861 5860 5859 5859 5859 5858 5858 5859 5860 5860 5861 5862 5863 5864 5865 5866 5868 5869 5870 5871 5872 5873 5874 5875 5876 5877 5877 5877 5878 5878 5878 5878 5878 5878 5878 5878
5867 5865 5863 5861 5859 5858 5857 5855 5854 5853 5853 5853 5852 5852 5853 5854 5854 5855 5856 5857 5859 5860 5861 5863 5864 5866 5867 5868 5870 5871 5873 5874 5875 5875 5876 5876 5877 5877 5877 5877 5877 5877 5878
5863 5861 5858 5856 5854 5852 5851 5849 5848 5847 5847 5846 5846 5846 5846 5847 5848 5849 5850 5851 5853 5854 5856 5858 5859 5861 5863 5864 5866 5868 5870 5871 5872 5873 5874 5875 5875 5876 5876 5877 5877 5877 5878
5858 5856 5853 5851 5848 5846 5845 5843 5842 5841 5840 5840 5839 5839 5840 5840 5841 5842 5843 5845 5846 5848 5850 5852 5854 5855 5857 5860 5862 5864 5866 5868 5869 5871 5872 5873 5874 5874 5875 5876 5876 5877 5877
5854 5851 5848 5845 5843 5840 5838 5837 5835 5834 5833 5833 5832 5832 5833 5833 5834 5835 5836 5838 5840 5842 5843 5845 5847 5850 5852 5855 5857 5860 5862 5864 5866 5867 5869 5870 5871 5873 5874 5875 5876 5876 5877
5850 5847 5844 5841 5838 5835 5832 5830 5829 5827 5826 5825 5825 5825 5825 5826 5826 5827 5829 5830 5832 5835 5837 5839 5841 5844 5847 5849 5852 5855 5857 5860 5862 5864 5866 5867 5869 5870 5872 5873 5874 5875 5876
5847 5843 5839 5836 5833 5830 5827 5825 5823 5821 5820 5818 5817 5817 5817 5818 5818 5819 5821 5823 5825 5827 5830 5833 5835 5838 5841 5844 5846 5849 5852 5855 5857 5860 5862 5864 5866 5868 5870 5871 5872 5874 5875
5843 5839 5836 5832 5829 5825 5823 5820 5818 5816 5814 5812 5811 5810 5810 5810 5811 5812 5813 5815 5817 5819 5822 5825 5828 5831 5834 5838 5841 5844 5847 5850 5852 5855 5858 5860 5862 5865 5867 5869 5870 5872 5874
5841 5837 5833 5829 5825 5822 5819 5816 5813 5810 5808 5806 5804 5803 5803 5803 5803 5804 5805 5807 5809 5811 5814 5817 5821 5824 5828 5831 5834 5837 5841 5844 5847 5850 5853 5856 5858 5861 5863 5866 5868 5869 5871
5839 5834 5830 5826 5823 5819 5815 5812 5809 5806 5803 5801 5799 5797 5796 5796 5795 5796 5797 5798 5800 5803 5807 5810 5813 5817 5820 5824 5828 5831 5835 5838 5842 5845 5848 5851 5854 5857 5859 5862 5864 5867 5869
5837 5832 5828 5824 5820 5816 5812 5808 5805 5802 5799 5796 5794 5792 5790 5789 5789 5789 5789 5790 5792 5795 5798 5802 5806 5809 5813 5817 5821 5825 5828 5832 5835 5839 5842 5845 5848 5851 5855 5858 5861 5863 5865
5835 5831 5826 5822 5818 5814 5810 5806 5802 5799 5795 5792 5789 5787 5785 5783 5782 5782 5782 5782 5784 5787 5791 5794 5798 5802 5805 5809 5814 5818 5821 5825 5829 5832 5836 5839 5842 5846 5850 5853 5856 5859 5861
5834 5830 5825 5821 5816 5812 5808 5803 5799 5796 5792 5788 5785 5782 5780 5778 5777 5776 5775 5776 5777 5780 5784 5787 5790 5794 5798 5802 5806 5811 5814 5818 5822 5826 5830 5834 5837 5841 5844 5848 5851 5854 5857
5834 5829 5824 5820 5815 5811 5806 5802 5797 5793 5789 5785 5782 5779 5776 5774 5772 5771 5770 5770 5772 5774 5777 5780 5783 5787 5791 5794 5799 5803 5807 5812 5815 5819 5823 5827 5831 5835 5838 5842 5846 5849 5852
5834 5829 5824 5819 5814 5810 5805 5800 5796 5791 5787 5783 5779 5776 5773 5770 5768 5767 5766 5766 5767 5768 5771 5773 5776 5780 5784 5788 5792 5796 5800 5804 5808 5812 5816 5820 5824 5829 5832 5836 5840 5843 5846
5834 5829 5824 5819 5814 5809 5804 5799 5795 5790 5785 5781 5777 5773 5770 5767 5765 5763 5762 5762 5763 5764 5765 5768 5770 5773 5777 5781 5784 5789 5793 5797 5801 5805 5810 5813 5817 5822 5826 5830 5834 5837 5840
5834 5829 5824 5819 5814 5809 5804 5799 5794 5789 5785 5780 5776 5772 5768 5765 5763 5761 5760 5759 5759 5760 5761 5763 5765 5768 5771 5774 5778 5781 5785 5790 5794 5798 5802 5806 5810 5815 5819 5823 5827 5830 5834
5834 5830 5825 5819 5814 5809 5804 5799 5794 5789 5785 5780 5775 5771 5767 5763 5761 5759 5757 5757 5757 5757 5758 5759 5761 5763 5765 5768 5771 5775 5779 5783 5787 5791 5795 5799 5803 5807 5812 5816 5820 5823 5827